EI7IG-1 Weather Reports


Display with metric or nautical units.
time (UTC)temp
F
wind
direction
speed
MPH
gust
MPH
rain 1hr
in
rain 24hr
in
rain mn
in
humidity
%
barometer
mb
20191114183151 40 34 0.0 11.0 0.00 0.44 0.00 82 1013.6
20191114182151 40 56 0.0 9.0 0.00 0.44 0.00 82 1013.5
20191114181151 40 305 3.0 11.0 0.00 0.45 0.00 81 1013.4
20191114180151 40 65 0.0 10.0 0.00 0.47 0.00 82 1013.3
20191114175151 40 62 0.0 9.0 0.00 0.48 0.00 81 1013.1
20191114174151 40 18 0.0 6.0 0.00 0.48 0.00 81 1013.0
20191114173151 40 37 0.0 8.0 0.00 0.49 0.00 80 1012.7
20191114172151 40 38 0.0 5.0 0.00 0.51 0.00 79 1012.5
20191114171152 40 341 7.0 10.0 0.00 0.51 0.00 78 1012.3
20191114170151 41 25 0.0 3.0 0.00 0.52 0.00 77 1012.2
20191114165151 41 111 0.0 6.0 0.00 0.53 0.00 76 1011.9
20191114164151 41 16 0.0 6.0 0.00 0.53 0.00 75 1011.7
20191114163151 41 115 4.0 8.0 0.00 0.53 0.00 74 1011.5
20191114162151 42 47 0.0 3.0 0.00 0.53 0.00 74 1011.4
20191114161151 42 41 0.0 9.0 0.00 0.53 0.00 73 1011.2
20191114160151 42 314 0.0 13.0 0.00 0.53 0.00 73 1011.1
20191114155151 43 13 0.0 8.0 0.00 0.53 0.00 74 1011.1
20191114154151 43 15 0.0 13.0 0.00 0.53 0.00 72 1010.9
20191114153151 43 46 0.0 18.0 0.00 0.53 0.00 71 1010.8
20191114152151 44 18 2.0 14.0 0.00 0.53 0.00 70 1010.6
20191114151151 44 54 0.0 19.0 0.00 0.53 0.00 71 1010.5
20191114150151 44 96 0.0 13.0 0.00 0.53 0.00 69 1010.2
20191114145151 44 146 7.0 17.0 0.00 0.53 0.00 69 1010.2
20191114144151 44 56 0.0 16.0 0.00 0.53 0.00 70 1010.1
20191114143151 44 82 0.0 15.0 0.00 0.53 0.00 69 1009.9
20191114142151 44 55 6.0 16.0 0.00 0.53 0.00 70 1009.8
20191114141151 44 58 0.0 16.0 0.00 0.53 0.00 70 1009.7
20191114140151 44 80 0.0 20.0 0.00 0.53 0.00 72 1009.5
20191114135151 44 27 2.0 19.0 0.00 0.53 0.00 72 1009.2
20191114134151 44 61 10.0 22.0 0.00 0.54 0.00 73 1009.2
20191114133151 44 33 0.0 13.0 0.00 0.54 0.00 73 1009.0
20191114132151 44 38 2.0 19.0 0.00 0.54 0.00 74 1009.1
20191114131151 44 94 0.0 19.0 0.00 0.54 0.00 75 1009.0
20191114130151 44 23 0.0 19.0 0.00 0.54 0.00 74 1008.9
20191114125151 44 47 0.0 22.0 0.00 0.54 0.00 74 1008.7
20191114124151 44 91 0.0 16.0 0.00 0.57 0.00 75 1008.7
20191114123151 44 15 3.0 14.0 0.00 0.59 0.00 77 1008.7
20191114122151 44 72 2.0 14.0 0.00 0.59 0.00 79 1008.5
20191114121151 43 330 3.0 19.0 0.00 0.62 0.00 80 1008.4
20191114120151 43 30 0.0 22.0 0.00 0.66 0.00 80 1008.5
20191114115151 43 49 12.0 21.0 0.00 0.78 0.00 81 1008.5
20191114114151 43 27 4.0 20.0 0.00 0.81 0.00 82 1008.3
20191114113151 43 38 5.0 19.0 0.00 0.84 0.00 83 1008.0
20191114112151 43 30 6.0 26.0 0.00 0.85 0.00 83 1008.0
20191114111151 42 347 4.0 20.0 0.00 0.85 0.00 84 1007.8
20191114110151 42 79 4.0 17.0 0.00 0.86 0.00 86 1007.7
20191114105151 42 124 2.0 20.0 0.00 0.88 0.00 86 1007.7
20191114104151 41 56 2.0 15.0 0.00 0.88 0.00 87 1007.5
20191114103151 41 49 13.0 17.0 0.00 0.88 0.00 88 1007.3
20191114102151 40 18 7.0 15.0 0.00 0.88 0.00 89 1007.0
20191114101151 39 353 0.0 15.0 0.00 0.88 0.00 89 1006.9
20191114100151 39 22 0.0 12.0 0.00 0.88 0.00 90 1006.8
20191114095151 39 325 0.0 13.0 0.00 0.89 0.00 90 1006.7
20191114094151 39 73 0.0 13.0 0.00 0.89 0.00 90 1006.5
20191114093151 39 25 9.0 14.0 0.00 0.90 0.00 90 1006.3
20191114092151 39 345 9.0 11.0 0.00 0.92 0.00 90 1006.3
20191114091151 39 330 1.0 12.0 0.00 0.96 0.00 90 1006.2
20191114090151 39 23 5.0 12.0 0.00 0.97 0.00 90 1005.8
20191114085151 39 52 3.0 16.0 0.00 0.97 0.00 90 1005.4
20191114084151 39 12 7.0 13.0 0.00 0.97 0.00 90 1005.3
20191114083151 39 49 0.0 15.0 0.00 0.97 0.00 90 1004.9
20191114082151 39 87 2.0 14.0 0.00 0.97 0.00 89 1004.7
20191114081151 39 47 0.0 11.0 0.00 0.97 0.00 89 1004.7
20191114080151 40 105 0.0 17.0 0.00 0.97 0.00 89 1004.5
20191114075151 40 95 2.0 18.0 0.00 0.97 0.00 89 1004.2
20191114074151 40 212 3.0 15.0 0.00 0.97 0.00 89 1003.8
20191114073151 40 98 3.0 16.0 0.00 0.97 0.00 89 1003.5
20191114072151 40 37 5.0 18.0 0.00 0.97 0.00 89 1003.1
20191114071151 41 60 4.0 15.0 0.00 0.97 0.00 89 1003.1
20191114070151 41 69 1.0 16.0 0.00 0.97 0.00 89 1003.0
20191114065151 41 63 10.0 17.0 0.00 0.97 0.00 89 1002.9
20191114064151 41 38 0.0 16.0 0.00 0.97 0.00 90 1002.6
20191114063151 41 232 2.0 14.0 0.00 0.97 0.00 90 1002.1
20191114062151 41 98 1.0 17.0 0.00 0.97 0.00 90 1001.6
20191114061151 41 96 14.0 18.0 0.00 0.97 0.00 90 1001.1
20191114060151 41 111 3.0 18.0 0.00 0.97 0.00 90 1000.7
20191114055151 41 26 11.0 21.0 0.00 0.97 0.00 90 1000.4
20191114054151 42 53 0.0 22.0 0.00 0.97 0.00 90 1000.2
20191114053151 42 100 1.0 18.0 0.00 0.97 0.00 90 999.8
20191114052151 42 304 8.0 12.0 0.00 0.97 0.00 90 999.7
20191114051151 42 59 0.0 14.0 0.00 0.97 0.00 90 999.5
20191114050151 42 23 12.0 15.0 0.00 0.97 0.00 88 999.3
20191114045151 43 39 1.0 16.0 0.00 0.97 0.00 87 999.0
20191114044151 43 75 0.0 15.0 0.00 0.97 0.00 87 998.5
20191114043151 43 37 0.0 11.0 0.00 0.97 0.00 87 998.0
20191114042151 43 4 0.0 13.0 0.00 0.97 0.00 87 997.6
20191114041151 43 51 6.0 19.0 0.00 0.97 0.00 88 997.1
20191114040151 43 4 0.0 18.0 0.00 0.97 0.00 86 996.9
20191114035151 43 74 0.0 13.0 0.00 0.97 0.00 85 996.4
20191114034151 43 77 1.0 17.0 0.00 0.97 0.00 86 996.1
20191114033151 43 358 5.0 22.0 0.00 0.97 0.00 88 995.7
20191114032151 43 146 9.0 20.0 0.00 0.97 0.00 90 995.3
20191114031151 42 356 0.0 17.0 0.00 0.97 0.00 92 995.1
20191114030151 42 121 0.0 15.0 0.01 0.97 0.00 94 994.8
20191114025151 41 22 0.0 10.0 0.03 0.97 0.00 95 994.4
20191114024151 40 40 1.0 6.0 0.06 0.97 0.00 97 994.0
20191114023151 39 49 0.0 5.0 0.10 0.97 0.00 97 993.7
20191114022151 38 47 0.0 0.0 0.11 0.97 0.00 97 993.4
20191114021151 37 27 0.0 0.0 0.12 0.96 0.00 96 993.3
20191114020151 37 63 0.0 0.0 0.14 0.96 0.00 96 993.3
20191114015151 37 41 0.0 1.0 0.14 0.94 0.00 96 993.1
20191114014151 37 32 0.0 0.0 0.12 0.91 0.00 96 993.1
20191114013151 37 49 0.0 1.0 0.09 0.87 0.00 96 992.9
20191114012151 37 38 0.0 1.0 0.07 0.85 0.00 96 992.6
20191114011151 37 25 0.0 2.0 0.06 0.84 0.00 95 992.4
20191114010151 37 11 0.0 1.0 0.03 0.81 0.00 96 992.3
20191114005151 37 36 0.0 3.0 0.01 0.79 0.00 96 992.0
20191114004151 37 16 0.0 1.0 0.00 0.78 0.00 96 991.8
20191114003151 37 352 0.0 0.0 0.00 0.77 0.00 96 991.6
20191114002151 37 59 0.0 1.0 0.00 0.77 0.00 95 991.4
20191114001151 37 15 0.0 2.0 0.00 0.77 0.00 96 991.2
20191114000151 37 96 0.0 1.0 0.00 0.77 0.00 96 991.1
20191113235151 37 52 0.0 0.0 0.00 0.77 0.00 95 990.8
20191113234151 37 43 0.0 0.0 0.00 0.77 0.00 95 990.7
20191113233151 37 105 0.0 1.0 0.00 0.77 0.00 96 990.4
20191113232151 37 96 0.0 1.0 0.00 0.77 0.00 96 990.3
20191113231151 37 56 0.0 0.0 0.00 0.77 0.00 96 990.0
20191113230151 37 89 0.0 0.0 0.00 0.77 0.00 96 989.8
20191113225151 37 72 0.0 0.0 0.00 0.77 0.00 96 989.7
20191113224151 37 63 0.0 0.0 0.00 0.77 0.00 96 989.6
20191113223151 37 41 0.0 0.0 0.00 0.77 0.00 95 989.4
20191113222151 37 89 0.0 0.0 0.01 0.77 0.00 95 989.2
20191113221151 37 36 0.0 0.0 0.03 0.77 0.00 95 988.9
20191113220151 38 25 0.0 0.0 0.04 0.77 0.00 95 988.7
20191113215151 38 38 0.0 0.0 0.05 0.77 0.00 95 988.6
20191113214151 38 8 0.0 0.0 0.07 0.77 0.00 95 988.7
20191113213151 38 327 0.0 0.0 0.08 0.77 0.00 95 988.6
20191113212151 38 344 0.0 0.0 0.10 0.76 0.00 95 988.5
20191113211151 38 343 0.0 0.0 0.10 0.74 0.00 94 988.5
20191113210151 38 332 0.0 0.0 0.09 0.73 0.00 94 988.5
20191113205152 38 5 0.0 0.0 0.10 0.72 0.00 94 988.5
20191113204151 38 343 0.0 0.0 0.08 0.70 0.00 94 988.5
20191113203151 38 318 0.0 0.0 0.07 0.68 0.00 95 988.5
20191113202151 38 329 0.0 0.0 0.06 0.66 0.00 94 988.5
20191113201151 38 333 0.0 0.0 0.04 0.64 0.00 95 988.4
20191113200151 38 349 0.0 0.0 0.04 0.63 0.00 94 988.4
20191113195151 38 333 0.0 0.0 0.04 0.62 0.00 94 988.4
20191113194151 38 353 0.0 0.0 0.05 0.61 0.00 94 988.5
20191113193151 38 312 0.0 0.0 0.07 0.60 0.00 95 988.5
20191113192151 38 320 0.0 0.0 0.07 0.59 0.00 95 988.5
20191113191151 38 326 0.0 0.0 0.07 0.59 0.00 95 988.6
20191113190151 38 348 0.0 0.0 0.08 0.59 0.00 95 988.5
20191113185151 38 291 0.0 0.0 0.07 0.57 0.00 95 988.6
20191113184151 38 295 0.0 0.0 0.07 0.55 0.00 94 988.6